Location: Unspecified
(0.0000°N, 0.0000°E)
Time: 23:43:17
(UTC+00:00)

Explorer 7 - Visible Passes

Search period start: 19 November 2019 00:00
Search period end: 29 November 2019 00:00
Orbit: 485 x 680 km, 50.3° (Epoch: 18 November)

Date Brightness Start Highest point End Pass type
(mag) Time Alt. Az. Time Alt. Az. Time Alt. Az.
19 Nov 9.5 19:39:55 10° S 19:41:08 15° SSE 19:41:08 15° SSE visible
20 Nov 8.8 19:43:51 10° SSW 19:46:23 26° S 19:46:23 26° S visible
21 Nov 8.2 19:48:23 10° SSW 19:51:43 43° SSW 19:51:43 43° SSW visible
22 Nov 9.3 18:15:44 10° SSE 18:17:41 12° SE 18:19:39 10° ESE visible
22 Nov 8.2 19:53:24 10° SW 19:57:07 45° W 19:57:07 45° W visible
23 Nov 8.6 18:18:46 10° S 18:22:39 24° SE 18:26:12 11° ENE visible
23 Nov 8.9 19:58:57 10° WSW 20:02:34 27° WNW 20:02:34 27° WNW visible
24 Nov 7.7 18:22:56 10° SSW 18:27:34 46° SE 18:31:41 13° NE visible
24 Nov 9.7 20:05:23 10° W 20:08:03 15° NW 20:08:03 15° NW visible
25 Nov 7.2 18:27:37 10° SW 18:32:27 88° WNW 18:37:11 11° NE visible
26 Nov 8.2 18:32:47 10° SW 18:37:22 44° NW 18:42:01 10° NNE visible
27 Nov 9.3 04:57:26 10° NNE 04:59:43 15° NE 05:01:58 10° E visible
27 Nov 9.3 18:38:31 10° WSW 18:42:18 23° NW 18:46:08 10° N visible
28 Nov 8.1 05:01:10 10° NNW 05:04:40 32° NE 05:08:05 10° ESE visible
28 Nov 9.9 18:45:36 10° WNW 18:47:18 12° NW 18:48:59 10° NNW visible
